Regional Weather Roundup
Issued by NWS

Home | Current Version | Previous Version | Graphics & Text | Print | Product List | Glossary On
Versions: 1 2 3 4 5 6 7 8 9 10 11 12 13 14 15 16 17 18 19 20 21 22 23 24 25 26 27 28 29 30 31 32 33 34 35 36 37 38 39 40 41 42 43 44 45 46 47 48 49 50
000
ASUS45 KTFX 221004
RWRMT
MONTANA HOURLY WEATHER ROUNDUP
NATIONAL WEATHER SERVICE GREAT FALLS MT
404 AM MDT WED OCT 22 2014

NOTE: "FAIR" INDICATES FEW OR NO CLOUDS BELOW 12000 FEET WITH NO
SIGNIFICANT WEATHER AND/OR OBSTRUCTIONS TO VISIBILITY.

* THESE STATIONS ARE NOT UNDER NWS QUALITY CONTROL. THEY DO NOT
   REPORT WEATHER SUCH AS PRECIPITATION OR FOG.

MTZ001>007-043-221100-
WEST OF THE DIVIDE
CITY           SKY/WX    TMP DP  RH WIND       PRES   REMARKS
KALISPELL      PTCLDY    39  37  93 S5        30.00S WCI  35
MISSOULA       FAIR      43  39  86 SE5       30.06R
BUTTE          CLEAR     36  28  73 E3        30.06F
MULLAN PASS    FOG       34  34 100 S5        30.01S VSB 1 1/4 WCI  29
* ESSEX        N/A       41  40  96 W1         N/A
* LINCOLN      N/A       39  35  86 S4G11      N/A
* POLSON       N/A       36  35  96 SE2        N/A
* RONAN APT    CLEAR     37  36  96 N/A        N/A
* SEELEY LAKE  N/A       34  33  96 N/A        N/A
* THOMP F APT  CLEAR     31  26  82 NW2G10     N/A
$$

MTZ008-052>055-221100-
SOUTHWEST MONTANA
CITY           SKY/WX    TMP DP  RH WIND       PRES   REMARKS
BOZEMAN        PTCLDY    34  30  85 SE6       30.06S WCI  29
DILLON         CLEAR     34  28  79 S9        30.08S WCI  27
W YELLOWSTONE  CLOUDY    32  32 100 S7        30.12R WCI  25
* THREE FORKS  PTCLDY    34  16  48 N/A        N/A
* BOULDER HILL N/A       35  27  73 S6         N/A   WCI  30
* MONIDA PASS  N/A       24  23  96 N/A        N/A
* RAYNOLDS PAS N/A       28  13  53 S2         N/A
* WHITEHALL    N/A       38  31  76 W5G20      N/A   WCI  34
* WISE RIVER   N/A       32  29  89 SW2        N/A
$$

MTZ009>010-012-014-046-048-049-054-221100-
EAST SLOPES AND CENTRAL MONTANA
CITY           SKY/WX    TMP DP  RH WIND       PRES   REMARKS
CUT BANK       PTCLDY    43  34  71 W13       29.88S
GREAT FALLS    CLEAR     41  34  76 SW15      29.93R
HELENA         FAIR      43  32  65 CALM      30.01S
MALMSTROM AFB  CLEAR     41  34  76 SW15      29.95R
* CONRAD       PTCLDY    46  37  71 SW17G23    N/A
* DEARBORN     N/A       48  33  56 S7G12      N/A
* EAST GLACIER N/A       42  32  68 W26G32     N/A
* MONARCH      N/A       38  25  60 SW13G20    N/A   WCI  30
* PENDROY      N/A       41  28  60 W12        N/A
* ROGERS PASS  N/A       37  33  85 SE12G20    N/A   WCI  29
* SAINT MARY   N/A       44  32  63 S8G22      N/A
* SWEET GRASS  N/A       44  34  68 S20G27     N/A
$$

MTZ011-013-016-021-035-040-045-047-050-051-221100-
NORTH CENTRAL MONTANA
CITY           SKY/WX    TMP DP  RH WIND       PRES   REMARKS
HAVRE          CLOUDY    46  39  77 SW20      29.84R
LEWISTOWN      CLOUDY    43  34  71 SW9       29.94S
* CHINOOK      MOCLDY    48  39  71 W15G20    29.82R
* FORT BENTON  PTCLDY    46  36  68 SW9       29.91S
* CHESTER      N/A       44  37  76 SW3G10     N/A
* DENTON       N/A       41  34  76 SW13G18    N/A
* GEYSER       N/A       43  30  60 SW19G24    N/A
* JUDITH GAP   N/A       43  30  60 S1         N/A
* LOMA         N/A       47  37  68 SW11G17    N/A
$$

MTZ017>020-022>027-061-062-221100-
NORTHEAST MONTANA
CITY           SKY/WX    TMP DP  RH WIND       PRES   REMARKS
GLASGOW        MOCLDY    48  39  71 W15       29.78R
GLENDIVE       MOCLDY    48  43  83 W16G22    29.84R
JORDAN         PTCLDY    46  39  77 W10       29.85S
SIDNEY         PTCLDY    52  45  77 W20G28    29.76R
WOLF POINT     CLEAR     48  43  83 W12       29.78R
* BEAVER HILL  N/A       50  45  83 SW21G27    N/A
* CIRCLE       N/A       49  44  83 SW10       N/A
* LINDSAY DVD  N/A       48  42  80 W19G26     N/A
* NAVAJO       N/A       47  43  86 W17        N/A
$$

MTZ028>042-056>058-221100-
SOUTHCENTRAL AND SOUTHEAST MONTANA
CITY           SKY/WX    TMP DP  RH WIND       PRES   REMARKS
BAKER          PTCLDY    48  43  83 W15       29.85R
BILLINGS       CLEAR     48  28  46 W23G32    29.96R
LIVINGSTON     PTCLDY    43  30  60 SW14      30.02S
MILES CITY     MOCLDY    48  39  71 W14       29.88S
* LAUREL APT   CLEAR     50  27  41 W22G29     N/A
* ROUNDUP APT  CLEAR     45  30  56 SW15G21    N/A
* ALZADA       N/A       47  34  61 W9         N/A
* HYSHAM       N/A       44  31  60 W10        N/A
* LAME DEER    N/A       44  30  58 W10G23     N/A
* REED POINT   N/A       49  30  48 W20G27     N/A
* ROSCOE HILL  N/A       40  16  38 SE4        N/A
$$

REGIONAL REPORTS...DAKOTAS
CITY           SKY/WX    TMP DP  RH WIND       PRES   REMARKS
WILLISTON      MOCLDY    54  46  74 SW21      29.71R
DICKINSON      CLEAR     52  45  77 W23G31    29.75R
BEACH          N/A       48  48 100 W15G21    29.81R
CROSBY         MOCLDY    54  45  72 W10       29.66R
TIOGA          N/A       54  52  93 W14       29.71R
BISMARCK       PTCLDY    55  46  72 CALM      29.70R
GRAND FORKS    LGT RAIN  55  43  64 S23G39    29.80F
FARGO          PTCLDY    55  41  59 SE25G38   29.86F
BUFFALO SD     PTCLDY    50  41  71 NW12      29.79R
RAPID CITY     CLOUDY    57  37  47 N18       29.87R
$$

REGIONAL REPORTS...WYOMING/IDAHO/WASHINGTON
CITY           SKY/WX    TMP DP  RH WIND       PRES   REMARKS
GILLETTE       CLOUDY    41  30  65 W3        29.98R
SHERIDAN       PTCLDY    45  27  49 NW8       29.98R
CODY           PTCLDY   N/A N/A N/A NW7       30.00S
YELLOWSTONE LA PTCLDY    27  25  92 CALM      30.14S
SALMON         MOCLDY   N/A N/A N/A N/A        N/A   VSB 3/4
MULLAN PASS    FOG       34  34 100 S5        30.01S VSB 1 1/4 WCI  29
SAND POINT     CLOUDY    45  45 100 CALM      29.99S
SPOKANE        PTCLDY    45  37  74 SE9       29.96F

$$




USA.gov is the U.S. government's official web portal to all federal, state and local government web resources and services.